Location: �chenoz-la-M�line
(47.6009°N, 6.1354°E)
Time: 12:22:09
(UTC+00:00)

Cosmos 2298 Rocket - Pass Details

Date: 27 January 2021
Orbit: 775 x 784 km, 74.0° (Epoch: 02 March)

Event Time Altitude Azimuth Distance (km) Brightness Sun altitude
Exits shadow 05:00:27 27° 330° (NNW) 1,463 5.1 -21.4°
Maximum altitude 05:03:23 74° 251° (WSW) 820 3.9 -20.9°
Drops below altitude 10° 05:08:40 10° 167° (SSE) 2,335 6.7 -20.1°
Sets 05:11:03 0° 165° (SSE) 3,258 7.5 -19.7°
